Presure
244 227 200 183 195 235 238 179 244 217 220 219 226 224 223 215 203 201 201 189 187 206 193 200 213 182 185 184 185 187 198 194 196 200 205 207 207 207
196 194 203 219 243 230 221 250 220 241 159 210 219 249 217 237 232 226 213 193 198 200 208 198 188 202 208 196 193 190 191 183 201 198 201 202 200 203
207 246 244 260 331 323 225 198 266 250 281 251 251 247 244 244 199 244 228 227 234 210 216 214 209 212 217 195 208 210 201 210 199 195 194 199 195 192
237 238 212 340 178 247 353 297 316 246 153 311 196 281 275 281 253 256 249 241 261 247 236 191 215 227 225 209 201 195 195 208 193 211 214 205 196 208
259 203 354 293 353 252 331 273 296 288 335 282 285 259 301 289 287 268 254 246 261 246 252 251 242 238 226 227 229 209 225 194 213 189 213 209 204 213
162 228 311 286 334 320 317 322 327 304 287 304 275 321 232 282 294 282 277 214 257 256 252 250 251 250 254 248 237 247 243 219 232 234 204 226 226 217
326 340 339 335 329 313 325 305 318 317 321 318 255 327 314 297 277 296 288 283 289 305 289 273 271 261 239 238 253 242 228 238 224 227 229 241 244 225
340 334 325 325 324 326 325 323 317 316 308 315 315 312 310 307 292 281 256 286 287 269 204 291 293 294 290 269 260 259 260 266 253 244 253 258 240 241
331 324 325 319 318 324 323 324 319 317 317 315 318 306 307 309 315 276 264 267 274 282 274 287 288 272 270 302 309 311 320 303 263 268 277 280 276 276
329 326 319 315 315 321 320 316 316 314 317 320 321 321 323 323 319 319 316 267 290 281 274 268 264 268 273 274 276 282 285 287 293 293 285 289 295 302
325 319 317 316 311 310 313 309 306 304 308 309 312 318 320 321 322 326 328 339 321 311 294 282 282 283 277 270 268 268 268 271 274 275 279 280 283 285
314 310 309 312 310 308 309 309 310 308 309 309 310 315 316 314 317 324 331 333 334 330 324 331 298 277 278 282 282 280 276 272 265 265 269 272 272 274
314 312 311 313 313 311 311 314 316 318 319 320 321 321 321 323 323 325 328 331 333 334 335 336 332 326 299 290 279 285 292 295 293 287 282 282 281 281
322 324 325 325 325 325 326 328 332 396 398 394 414 377 416 380 389 395 403 407 421 462 464 461 462 454 457 456 446 445 451 453 397 402 418 429 420 294
443 507 491 467 448 439 435 430 420 410 407 423 420 412 406 406 423 429 435 456 451 441 429 427 427 427 428 430 433 444 461 491 481 474 480 474 479 489
520 499 481 463 447 436 424 418 421 420 416 415 416 418 423 432 462 439 424 415 409 404 414 434 450 457 465 461 461 474 464 463 455 453 446 442 443 454
502 491 470 450 437 429 424 421 417 415 420 429 437 461 442 404 408 399 394 393 416 431 434 446 456 447 454 458 462 453 439 437 436 453 439 438 436 430
471 462 450 437 428 422 421 423 430 459 461 434 378 406 399 393 383 386 402 416 421 435 430 402 393 394 395 402 412 423 425 433 449 447 443 437 440 433
458 441 433 429 428 434 450 392 368 363 455 416 393 385 377 383 393 411 421 390 380 376 382 375 375 372 387 368 370 379 385 376 395 382 387 415 402 401
489 460 449 450 420 372 373 436 432 409 384 376 373 384 396 406 408 413 384 380 368 362 359 359 353 352 350 349 347 349 351 353 354 357 358 365 366 371
370 373 407 397 422 399 396 396 383 372 372 375 396 419 418 398 397 372 366 361 354 350 346 342 337 335 336 336 337 333 335 337 336 337 339 343 344 346
392 391 383 376 376 371 368 373 374 375 386 420 413 404 385 375 362 367 358 353 350 341 334 333 334 333 330 330 326 328 332 328 327 329 328 327 327 327
389 388 384 387 382 383 387 390 403 425 424 405 394 385 372 382 360 352 350 352 334 332 331 331 338 331 336 330 334 336 317 325 318 316 319 327 310 311
Wind_Speed
115 112 69 58 64 98 103 75 97 89 88 92 95 93 87 81 74 73 73 76 75 73 69 68 71 75 72 71 70 70 65 66 67 68 68 67 67 68
72 67 93 116 111 100 90 103 82 87 87 88 94 102 90 93 95 91 81 78 77 75 76 76 77 73 75 78 76 74 73 75 71 71 71 69 69 69
84 110 100 110 99 97 105 90 94 84 87 96 94 95 100 102 89 99 92 92 97 86 90 88 80 80 83 79 79 79 75 77 76 76 77 74 74 75
128 126 93 96 91 108 74 91 83 91 66 76 94 91 96 96 102 103 103 100 102 102 99 89 90 98 96 84 83 84 83 83 83 83 84 80 80 81
123 93 86 95 74 89 74 90 85 86 71 77 80 77 83 92 93 101 103 103 105 104 104 104 102 102 97 99 102 89 96 89 91 89 92 87 85 90
89 116 82 92 77 79 79 78 73 80 78 74 80 73 80 86 86 92 97 94 103 106 108 107 106 104 107 107 102 106 107 94 101 104 93 101 103 96
93 86 80 77 77 78 75 77 76 74 71 71 80 70 76 79 85 84 88 93 97 103 111 113 116 113 103 102 110 103 95 100 96 99 100 106 108 104
84 82 81 77 77 76 75 75 76 76 76 74 73 72 73 76 79 81 85 84 89 98 88 103 109 111 117 122 118 116 114 117 110 104 111 113 110 111
82 80 76 78 78 77 76 76 77 78 77 76 75 76 76 78 79 82 83 82 82 88 95 90 99 102 106 103 107 109 108 112 116 116 118 122 124 123
81 79 77 77 78 77 75 76 77 79 80 80 78 77 79 80 81 82 83 83 80 84 91 86 94 93 96 97 99 101 101 101 101 104 106 108 110 114
82 81 81 79 79 78 77 76 77 79 82 81 80 81 81 82 83 82 81 82 80 84 89 83 86 86 91 95 97 97 96 95 94 95 99 101 102 104
85 85 85 85 83 83 82 81 79 81 81 80 82 83 83 82 83 84 81 80 80 78 85 85 85 86 85 90 94 96 95 94 94 96 97 97 97 98
88 88 89 90 89 88 87 86 85 84 83 82 83 83 84 84 85 85 83 80 78 79 83 85 84 84 84 89 92 94 93 95 96 96 96 97 98 98
94 94 93 93 92 92 91 90 88 76 73 71 66 70 61 68 67 65 64 62 56 41 37 40 38 40 39 37 39 44 46 45 62 63 58 56 59 99
94 70 69 69 69 67 64 64 65 65 65 60 57 55 53 53 48 45 41 33 33 32 37 39 39 40 39 39 40 40 37 29 25 25 22 25 26 21
54 55 53 51 51 52 54 55 55 54 54 52 49 45 41 37 25 26 27 29 30 35 36 35 32 29 26 24 24 18 21 21 22 22 21 25 24 24
41 40 41 41 41 42 44 45 46 47 47 43 37 29 24 27 23 24 24 26 26 26 28 24 22 17 17 16 13 10 11 13 16 21 21 21 19 21
36 31 28 29 31 34 36 38 39 37 32 27 30 18 18 18 20 20 19 14 9 7 6 7 7 7 7 5 3 3 4 7 11 9 10 7 6 8
31 26 24 24 25 27 27 25 28 29 12 8 13 15 14 15 16 14 8 4 5 4 2 3 3 2 1 3 2 2 2 2 3 3 4 5 6 8
30 25 22 21 16 19 21 11 6 6 9 12 12 17 16 11 5 3 4 4 3 2 2 2 2 1 3 4 5 5 5 5 6 6 6 7 8 9
30 24 17 14 9 10 9 8 7 9 11 14 17 7 3 4 5 6 5 6 5 5 5 4 5 5 5 6 7 7 6 6 7 7 7 8 9 10
25 19 14 12 12 11 11 10 11 12 14 6 4 8 6 6 5 6 7 7 7 6 6 6 6 6 5 6 6 8 9 8 7 8 8 9 9 10
26 21 18 14 13 12 12 11 11 5 5 8 10 10 6 8 4 3 3 4 3 4 4 4 7 5 6 6 6 7 6 9 9 8 8 8 9 9
Wind_Direction
301 306 303 289 293 293 298 270 290 281 284 284 279 280 279 277 271 270 269 263 261 272 264 267 268 260 258 258 258 258 255 256 255 255 255 256 256 256
310 295 309 305 299 299 290 290 294 287 284 283 278 275 276 274 272 271 269 261 264 264 266 262 259 262 261 258 261 257 259 258 256 255 256 256 254 255
293 304 293 296 297 296 298 274 281 285 272 277 275 274 272 271 270 269 268 268 266 264 266 265 263 262 262 256 261 261 257 261 256 256 258 257 254 255
302 303 299 300 274 292 289 286 283 283 280 271 280 265 264 260 266 266 266 266 262 263 263 257 262 263 263 257 255 255 255 261 253 263 263 261 255 262
301 288 301 296 294 295 290 285 281 280 277 273 271 273 263 262 260 260 263 264 261 264 263 261 261 261 261 262 261 256 261 255 260 256 262 260 256 260
292 303 294 299 295 294 291 288 285 281 281 274 272 266 274 263 260 260 259 270 261 262 261 263 263 262 260 261 258 260 259 258 261 260 258 261 262 258
302 302 299 297 295 293 289 288 284 282 280 277 275 269 265 262 262 260 259 259 260 257 257 257 257 259 261 260 260 260 256 258 255 256 258 258 257 257
303 301 298 296 295 292 289 286 284 282 280 277 274 272 268 265 262 261 261 260 258 260 272 257 258 257 257 257 259 260 261 259 260 261 259 258 257 257
301 299 297 295 293 291 289 287 284 282 279 277 274 273 271 269 267 261 259 258 259 259 260 259 259 258 259 261 260 259 259 257 258 258 258 259 258 258
300 298 296 293 291 289 288 286 285 284 282 281 279 276 273 271 269 267 266 259 260 258 258 256 259 260 261 260 260 260 259 259 258 257 258 257 256 256
301 299 296 293 291 289 286 284 283 282 282 282 281 279 277 276 274 272 269 268 263 263 263 260 258 257 258 259 259 259 260 260 259 259 258 258 257 257
300 297 295 293 290 289 287 285 283 281 280 280 279 278 277 276 276 274 272 271 269 267 267 266 260 259 259 260 259 259 258 257 258 258 257 257 257 256
298 295 293 292 291 289 287 285 284 282 281 281 279 279 278 277 276 276 276 275 274 272 270 269 268 265 261 260 260 260 260 260 258 257 256 256 255 255
298 294 292 290 288 287 286 285 284 285 284 283 284 281 283 280 279 279 279 280 281 282 279 281 282 280 278 276 272 271 272 273 265 263 261 259 258 256
296 289 286 285 285 285 285 285 285 286 285 286 286 286 285 283 283 282 282 280 283 285 280 281 282 281 280 277 274 273 274 271 262 268 262 261 261 258
294 289 285 281 279 281 282 284 284 285 286 287 289 289 287 285 278 276 279 282 283 283 284 283 281 281 283 276 275 272 268 268 263 257 256 257 260 255
304 293 284 281 281 282 285 286 287 288 290 292 292 291 281 280 278 284 285 285 288 283 283 286 288 284 284 279 282 272 264 277 270 253 253 260 257 256
312 306 294 284 282 282 283 285 286 287 288 290 287 281 276 278 280 282 290 289 290 326 318 297 289 289 284 272 304 294 266 284 266 262 256 243 258 214
313 310 303 297 292 291 293 290 290 293 283 273 267 277 287 296 294 288 293 269 272 277 297 287 297 279 43 240 253 229 211 210 247 206 205 220 199 208
321 317 312 306 305 298 296 298 284 284 280 294 309 311 298 286 269 174 175 148 200 222 233 226 199 146 140 132 136 133 135 138 140 146 158 162 172 177
337 338 338 335 346 333 329 326 311 307 317 321 307 296 166 147 150 168 179 179 192 190 185 170 157 161 154 149 141 135 136 138 143 150 151 154 156 160
347 349 349 344 342 338 332 329 327 321 312 311 117 120 131 147 167 168 184 197 189 186 175 171 171 171 163 154 151 151 143 142 150 151 151 151 152 152
333 334 335 333 331 329 326 323 316 337 95 122 136 137 139 141 173 162 182 190 182 178 178 176 182 168 160 149 150 144 168 154 160 163 160 154 165 167